Home   Weather   Boise   Past weeks

Flag for USA Past Weather in Boise, Idaho, USA — Yesterday and Last 2 Weeks

Now
60 °F

Clear.


Feels Like: 60 °F
Forecast: 48 / 74 °F
Wind: 3 mph from Northwest

Location: Boise Air Terminal

Current Time: Sep 24, 2016 at 9:55:40 PM

Latest Report: Sep 24, 2016 at 8:53 PM


Visibility: 10 mi

Pressure: 30.29 "Hg (27.48 "Hg at 822m altitude)

Humidity: 35%

Dew Point: 32 °F

Location of BoiseLocation

Past Weather in Boise — Graph

°F

Boise Temperature Yesterday

Maximum temperature yesterday: 69 °F (at 3:53 PM)
Minimum temperature yesterday: 50 °F (at 6:53 AM)
Average temperature yesterday: 59 °F

High & Low Weather Summary for the Past Weeks

 TemperatureHumidityPressure
High83 °F (Sep 11, 4:53 PM)97% (Sep 21, 11:53 PM)30.27 "Hg (Sep 21, 11:53 PM)
Low44 °F (Sep 15, 5:53 AM)8% (Sep 10, 5:53 PM)29.74 "Hg (Sep 21, 10:53 PM)
Average62 °F46%29.97 "Hg
* Reported Sep 9 7:53 PM — Sep 24 7:53 PM, Boise, Weather by CustomWeather, © 2016

Note: Actual official high and low records may vary slightly from our data, if they occured in-between our weather recording intervals... More about our weather records

Advertising

Boise Weather History for the Previous 24 Hours

Scroll right to see more
 ConditionsComfort  
Time TempWeatherWind HumidityBarometerVisibility
7:53 PM
Sat, Sep 24
62 °FSunny.5 mph30%30.27 "Hg8 mi
6:53 PM66 °FSunny.9 mph25%30.26 "Hg10 mi
5:53 PM67 °FSunny.15 mph27%30.25 "Hg10 mi
4:53 PM67 °FSunny.10 mph29%30.25 "Hg10 mi
3:53 PM66 °FSunny.14 mph31%30.25 "Hg10 mi
2:53 PM66 °FSunny.16 mph33%30.25 "Hg10 mi
1:53 PM64 °FSunny.14 mph38%30.25 "Hg10 mi
12:53 PM62 °FSunny.14 mph41%30.25 "Hg10 mi
11:53 AM60 °FSunny.14 mph46%30.26 "Hg10 mi
10:53 AM56 °FPassing clouds.13 mph55%30.26 "Hg10 mi
9:53 AM53 °FPartly sunny.10 mph64%30.24 "Hg10 mi
8:53 AM52 °FScattered clouds.8 mph69%30.22 "Hg10 mi
7:53 AM49 °FPassing clouds.6 mph77%30.20 "Hg10 mi
6:53 AM48 °FClear.7 mph80%30.18 "Hg10 mi
5:53 AM50 °FClear.8 mph74%30.16 "Hg10 mi
4:53 AM51 °FClear.9 mph71%30.13 "Hg10 mi
3:53 AM53 °FClear.13 mph66%30.11 "Hg10 mi
2:53 AM54 °FPassing clouds.16 mph64%30.11 "Hg10 mi
1:53 AM56 °FOvercast.15 mph58%30.08 "Hg10 mi
12:53 AM57 °FMostly cloudy.12 mph55%30.06 "Hg10 mi
11:53 PM
Fri, Sep 23
60 °FOvercast.13 mph41%30.04 "Hg10 mi
10:53 PM61 °FMostly cloudy.9 mph39%30.02 "Hg10 mi
9:53 PM63 °FOvercast.12 mph34%30.00 "Hg10 mi
Weather by CustomWeather, © 2016

See weather overviewHow to use our weather pages